Find Starlink 32581

NORAD ID: 62184 Int'l Des: 2024-225 Owner: SPXS Country: US Constellation: starlink operational
LEOCIRCULAR

实时位置

正在加载3D地球...

关于 Starlink 32581

正在加载描述...

即将过境

Passes for default location (London). Set your location on the main map for personalized predictions.

高度历史

Loading altitude history...

两行轨道根数

1 62184U 24225X 26125.41240130 .00008240 00000-0 69716-3 0 9993
2 62184 70.0038 11.3464 0002017 278.5018 81.5912 14.98351224 78629
Epoch: May 5, 2026 • Age: 13 hours

当前状态

高度 574.0 km
速度 7.58 km/s
星下点 16.60°N, 170.47°E
发射日期 Nov 30, 2024
运行时间 1.4 years
类型 internet

技术详情

分类 Payload
质量 730.00 kg
干质量 700.00 kg
总质量 730.00 kg
长度 0.30 m
直径 4.10 m
跨度 29.00 m
形状 Box + pan
制造商 SPXS
平台类型 Starlink V2M
阶段状态 In Orbit
所有者/国家 SPXS/US

Most Searched